Weather History for Scottsdale, AZ

Change the Weather History Date:

Friday, May 17, 2013

  Actual Average Record
Temperature  
Mean Temperature 80 °F -  
Max Temperature 90 °F 91 °F 104 °F (1997)
Min Temperature 70 °F 66 °F 60 °F (2000)
Cooling Degree Days 15    
Growing Degree Days 30 (Base 50)    
Moisture  
Dew Point 28 °F    
Average Humidity 14    
Maximum Humidity 20    
Minimum Humidity 11    
Precipitation  
Precipitation 0.00 in - - ()
Sea Level Pressure  
Sea Level Pressure 29.77 in    
Wind  
Wind Speed 3 mph (SSE)    
Max Wind Speed 8 mph    
Max Gust Speed 16 mph    
Visibility 10 miles    
Events      
Averages and records for this station are not official NWS values.
T = Trace of Precipitation, MM = Missing Value Source: NWS Daily Summary

Daily Weather History Graph

Daily Weather History Graph

Search for Another Location

Airport:

Trip Planner

Search our weather history database for the weather conditions in past years. The results will help you decide how hot, cold, wet, or windy it might be!

Date:

Astronomy

May. 17, 2013 Rise Set
Actual Time 5:25 AM MST 7:23 PM MST
Civil Twilight 4:57 AM MST 7:50 PM MST
Nautical Twilight 4:24 AM MST 8:24 PM MST
Astronomical Twilight 3:48 AM MST 9:00 PM MST
Moon 11:53 AM MST (5/17) 12:25 AM MST (5/17)
Length of Visible Light 14h 53m
Length of Day
13h 57m
Waxing Crescent, 46% of the Moon is Illuminated
May 17
Waxing Crescent
May 17
First Quarter
May 24
Full
May 31
Last Quarter
Jun 8
New

Hourly Weather History & Observations

Time (MST) Temp. Dew Point Humidity Pressure Visibility Wind Dir Wind Speed Gust Speed Precip Events Conditions
12:53 AM 77.0 °F 21.9 °F 13% 29.74 in 10.0 mi East 3.5 mph - N/A   Clear
1:53 AM 75.9 °F 23.0 °F 14% 29.74 in 10.0 mi Calm Calm - N/A   Clear
2:53 AM 73.9 °F 21.9 °F 14% 29.75 in 10.0 mi Calm Calm - N/A   Clear
3:53 AM 73.0 °F 23.0 °F 15% 29.74 in 10.0 mi ESE 3.5 mph - N/A   Clear
4:53 AM 72.0 °F 24.1 °F 17% 29.75 in 10.0 mi East 3.5 mph - N/A   Clear
5:53 AM 70.0 °F 27.0 °F 20% 29.78 in 10.0 mi Calm Calm - N/A   Clear
6:53 AM 73.0 °F 30.0 °F 20% 29.80 in 10.0 mi SE 3.5 mph - N/A   Clear
7:53 AM 78.1 °F 28.9 °F 17% 29.81 in 10.0 mi SE 5.8 mph - N/A   Clear
8:53 AM 81.0 °F 30.0 °F 16% 29.82 in 10.0 mi Variable 4.6 mph - N/A   Clear
9:53 AM 84.0 °F 30.0 °F 14% 29.82 in 10.0 mi ESE 6.9 mph - N/A   Clear
10:53 AM 86.0 °F 28.0 °F 12% 29.82 in 10.0 mi SSE 8.1 mph - N/A   Clear
12:53 PM 90.0 °F 28.9 °F 11% 29.79 in 10.0 mi Calm Calm - N/A   Clear
1:53 PM 90.0 °F 30.9 °F 12% 29.78 in 10.0 mi Variable 3.5 mph 16.1 mph N/A   Clear
2:53 PM 89.1 °F 32.0 °F 13% 29.78 in 10.0 mi West 8.1 mph - N/A   Clear
3:53 PM 88.0 °F 30.0 °F 12% 29.76 in 10.0 mi Variable 6.9 mph - N/A   Clear
4:53 PM 89.1 °F 28.9 °F 12% 29.75 in 10.0 mi Variable 5.8 mph - N/A   Clear
5:53 PM 88.0 °F 26.1 °F 11% 29.74 in 10.0 mi Variable 3.5 mph - N/A   Clear
6:53 PM 88.0 °F 27.0 °F 11% 29.75 in 10.0 mi WSW 6.9 mph - N/A   Clear
7:53 PM 87.1 °F 27.0 °F 11% 29.75 in 10.0 mi WSW 4.6 mph - N/A   Clear
8:53 PM 84.9 °F 27.0 °F 12% 29.75 in 10.0 mi Calm Calm - N/A   Clear
9:53 PM 84.0 °F 28.0 °F 13% 29.77 in 10.0 mi SW 4.6 mph - N/A   Clear
10:53 PM 81.0 °F 30.9 °F 16% 29.78 in 10.0 mi Calm Calm - N/A   Clear
11:53 PM 81.0 °F 32.0 °F 17% 29.78 in 10.0 mi SW 4.6 mph - N/A   Clear